"Pseudo-MPEC" for X65974

Created 2019 Mar 18 18:18:17 UT using Find_Orb

Click here for an explanation of pseudo-MPECs

 
 Astrometry: 
     X65974   C2019 03 07y38AstrometryZ#/Ty62C9EhR+redacted;3E29e0l]TnB8VALnUD29
     X65974   C2019 03 07)$0(click@E,w^Qfk7S6#lU38lAhere,iYc0_1fi5Pq/*po[/!GlD29
     X65974   C2019 03 07joFy\for^l#E[6.Evse?cojLSaB5explanationJw\Ji7n^7mtv_D29

Station data:
(D29) Purple Mountain Observatory, XuYi Station  (N32.734366 E118.463900)
   China.  Observers H. B. Zhao, B. Li, G. Zhaori, R. Q. Hong, L. F. Hu.
   Measurers H. B. Zhao, B. Li. H. Lu, G. Zhaori. 1.04-m f/1.8 Schmidt + CCD.

Orbital elements:  X65974
   Perihelion 2019 Feb 3.620823 +/- 44 TT = 14:53:59 (JD 2458518.120823)
Epoch 2019 Mar  8.0 TT = JDT 2458550.5   Earth MOID: 0.2219   AutoNEOCP
M   9.46076667 +/- 23               (J2000 ecliptic)
n   0.29218675 +/- 0.291            Peri.   12.45782 +/- 90
a   2.24920493 +/- 1.49             Node   130.59600 +/- 56
e   0.4628042 +/- 0.248             Incl.    4.38381 +/- 3.7
P   3.37                   H 23.2   G  0.15   U 11.9  SR
q 1.20826343 +/- 0.436    Q 3.29014643 +/- 62
From 3 observations 2019 Mar. 7 (48.4 min); mean residual 0".25
Residuals in arcseconds: 
190307 D29  .22+  .12+    190307 D29  .44-  .25-    190307 D29  .22+  .13+    

Ephemerides (geocentric):
Date (UTC) HH   RA              Dec         delta   r     elong  mag " sig PA
---- -- -- --  -------------   -----------  ------ ------ -----  --- ---- ---
2019 03 18 18  12 52 03.759   +09 49 37.22  .30622 1.2905 162.5 22.0  62d   4
2019 03 18 19  12 52 04.231   +09 49 47.07  .30634 1.2907 162.5 22.0  62d   4
2019 03 18 20  12 52 04.700   +09 49 56.88  .30645 1.2908 162.5 22.0  62d   4
2019 03 18 21  12 52 05.165   +09 50 06.66  .30657 1.2910 162.5 22.0  62d   4
2019 03 18 22  12 52 05.627   +09 50 16.40  .30668 1.2912 162.5 22.0  62d   4
2019 03 18 23  12 52 06.085   +09 50 26.10  .30680 1.2913 162.6 22.0  63d   4
2019 03 19 00  12 52 06.540   +09 50 35.77  .30692 1.2915 162.6 22.0  63d   4
2019 03 19 01  12 52 06.991   +09 50 45.41  .30704 1.2916 162.6 22.0  63d   4
2019 03 19 02  12 52 07.438   +09 50 55.00  .30715 1.2918 162.6 22.0  63d   4
2019 03 19 03  12 52 07.882   +09 51 04.56  .30727 1.2919 162.6 22.0  63d   4
2019 03 19 04  12 52 08.322   +09 51 14.09  .30739 1.2921 162.7 22.0  63d   4
2019 03 19 05  12 52 08.759   +09 51 23.58  .30751 1.2922 162.7 22.0  63d   4
2019 03 19 06  12 52 09.192   +09 51 33.03  .30762 1.2924 162.7 22.0  63d   4
2019 03 19 07  12 52 09.622   +09 51 42.44  .30774 1.2925 162.7 22.0  63d   4
2019 03 19 08  12 52 10.049   +09 51 51.82  .30786 1.2927 162.7 22.0  63d   4
2019 03 19 09  12 52 10.472   +09 52 01.17  .30798 1.2928 162.8 22.0  63d   4
2019 03 19 10  12 52 10.891   +09 52 10.47  .30810 1.2930 162.8 22.0  63d   4
2019 03 19 11  12 52 11.307   +09 52 19.75  .30822 1.2931 162.8 22.0  63d   4
2019 03 19 12  12 52 11.719   +09 52 28.98  .30833 1.2933 162.8 22.0  63d   4
2019 03 19 13  12 52 12.128   +09 52 38.18  .30845 1.2934 162.8 22.0  64d   4
2019 03 19 14  12 52 12.534   +09 52 47.34  .30857 1.2936 162.9 22.0  64d   4
2019 03 19 15  12 52 12.936   +09 52 56.46  .30869 1.2937 162.9 22.0  64d   4
2019 03 19 16  12 52 13.335   +09 53 05.55  .30881 1.2939 162.9 22.0  64d   4
2019 03 19 17  12 52 13.730   +09 53 14.60  .30893 1.2940 162.9 22.0  64d   4
2019 03 19 18  12 52 14.122   +09 53 23.62  .30905 1.2942 162.9 22.0  64d   4
2019 03 19 19  12 52 14.511   +09 53 32.60  .30917 1.2943 163.0 22.0  64d   4
2019 03 19 20  12 52 14.896   +09 53 41.54  .30929 1.2945 163.0 22.0  64d   4
2019 03 19 21  12 52 15.278   +09 53 50.44  .30942 1.2946 163.0 22.0  65d   4
2019 03 19 22  12 52 15.656   +09 53 59.31  .30954 1.2948 163.0 22.0  65d   4
2019 03 19 23  12 52 16.031   +09 54 08.14  .30966 1.2950 163.0 22.0  65d   4
2019 03 20 00  12 52 16.403   +09 54 16.94  .30978 1.2951 163.1 22.0  65d   4
2019 03 20 01  12 52 16.772   +09 54 25.69  .30990 1.2953 163.1 22.0  65d   4
2019 03 20 02  12 52 17.137   +09 54 34.41  .31002 1.2954 163.1 22.0  65d   4
2019 03 20 03  12 52 17.499   +09 54 43.10  .31015 1.2956 163.1 22.0  65d   4
2019 03 20 04  12 52 17.857   +09 54 51.74  .31027 1.2957 163.1 22.0  65d   4
2019 03 20 05  12 52 18.212   +09 55 00.35  .31039 1.2959 163.2 22.0  65d   4
2019 03 20 06  12 52 18.564   +09 55 08.93  .31051 1.2960 163.2 22.0  65d   4
2019 03 20 07  12 52 18.913   +09 55 17.46  .31064 1.2962 163.2 22.0  65d   4
2019 03 20 08  12 52 19.258   +09 55 25.96  .31076 1.2963 163.2 22.0  65d   4
2019 03 20 09  12 52 19.600   +09 55 34.42  .31088 1.2965 163.2 22.0  65d   4
2019 03 20 10  12 52 19.939   +09 55 42.85  .31101 1.2966 163.3 22.0  66d   4
2019 03 20 11  12 52 20.275   +09 55 51.23  .31113 1.2968 163.3 22.0  66d   4
2019 03 20 12  12 52 20.607   +09 55 59.58  .31125 1.2970 163.3 22.0  66d   4
2019 03 20 13  12 52 20.936   +09 56 07.90  .31138 1.2971 163.3 22.0  66d   4
2019 03 20 14  12 52 21.262   +09 56 16.17  .31150 1.2973 163.3 22.0  66d   4
2019 03 20 15  12 52 21.585   +09 56 24.41  .31163 1.2974 163.3 22.0  66d   4
2019 03 20 16  12 52 21.904   +09 56 32.61  .31175 1.2976 163.4 22.0  66d   4
2019 03 20 17  12 52 22.221   +09 56 40.78  .31187 1.2977 163.4 22.0  66d   4